• In Netherlands
  • List of Countries
  • For 7 days
  • Water Temperature
  • Satellite Maps
  • Weather Map
  • Weather Widgets
  • user-avatar
    Login

    Hourly Weather Jambol

    Today, 21 January, Saturday

    Time Temperature Precipitation Wind Pressure Humidity
    00:00 -10°C° 0 mm 1 mps 763 mmHg 86%
    01:00 -10°C° 0 mm 1 mps 763 mmHg 85%
    02:00 -10°C° 0 mm 1 mps 763 mmHg 84%
    03:00 -10°C° 0 mm 1 mps 762 mmHg 83%
    04:00 -10°C° 0 mm 1 mps 762 mmHg 82%
    05:00 -10°C° 0 mm 1 mps 762 mmHg 82%
    06:00 -9°C° 0 mm 1 mps 762 mmHg 81%
    07:00 -9°C° 0 mm 1 mps 762 mmHg 80%
    08:00 -9°C° 0 mm 1 mps 762 mmHg 80%
    09:00 -6°C° 0 mm 1 mps 762 mmHg 79%
    10:00 -2°C° 0 mm 1 mps 762 mmHg 78%
    11:00 0°C° 0 mm 1 mps 762 mmHg 77%
    12:00 +1°C° 0 mm 1 mps 762 mmHg 80%
    13:00 +2°C° 0 mm 1 mps 761 mmHg 83%
    14:00 +2°C° 0 mm 1 mps 761 mmHg 86%
    15:00 0°C° 0 mm 1 mps 761 mmHg 87%
    16:00 -2°C° 0 mm 1 mps 761 mmHg 88%
    17:00 -4°C° 0 mm 1 mps 761 mmHg 89%
    18:00 -4°C° 0 mm 1 mps 761 mmHg 88%
    19:00 -6°C° 0 mm 1 mps 761 mmHg 86%
    20:00 -6°C° 0 mm 1 mps 761 mmHg 84%
    21:00 -6°C° 0 mm 1 mps 761 mmHg 82%
    22:00 -6°C° 0 mm 1 mps 762 mmHg 81%
    23:00 -4°C° 0 mm 1 mps 762 mmHg 79%

    Tomorrow, 22 January, Sunday

    Time Temperature Precipitation Wind Pressure Humidity
    00:00 -4°C° 0 mm 1 mps 762 mmHg 79%
    01:00 -3°C° 0 mm 1 mps 763 mmHg 78%
    02:00 -2°C° 0 mm 1 mps 763 mmHg 77%
    03:00 -2°C° 0 mm 1 mps 763 mmHg 77%
    04:00 -2°C° 0 mm 1 mps 763 mmHg 78%
    05:00 -2°C° 0 mm 1 mps 763 mmHg 78%
    06:00 -2°C° 0 mm 1 mps 763 mmHg 80%
    07:00 -3°C° 0 mm 1 mps 763 mmHg 81%
    08:00 -3°C° 0 mm 1 mps 763 mmHg 83%
    09:00 -1°C° 0 mm 1 mps 764 mmHg 86%
    10:00 +1°C° 0 mm 1 mps 764 mmHg 88%
    11:00 +2°C° 0 mm 1 mps 765 mmHg 91%
    12:00 +3°C° 0 mm 1 mps 764 mmHg 91%
    13:00 +3°C° 0 mm 1 mps 764 mmHg 92%
    14:00 +2°C° 0 mm 2 mps 764 mmHg 93%
    15:00 +1°C° 0 mm 2 mps 764 mmHg 94%
    16:00 -2°C° 0 mm 2 mps 763 mmHg 95%
    17:00 -3°C° 0 mm 2 mps 763 mmHg 95%
    18:00 -3°C° 0 mm 2 mps 763 mmHg 96%
    19:00 -4°C° 0 mm 2 mps 763 mmHg 96%
    20:00 -4°C° 0 mm 2 mps 764 mmHg 96%
    21:00 -4°C° 0 mm 2 mps 764 mmHg 96%
    22:00 -4°C° 0 mm 2 mps 764 mmHg 96%
    23:00 -2°C° 0 mm 1 mps 764 mmHg 96%

    Day after tomorrow, 23 January, Monday

    Time Temperature Precipitation Wind Pressure Humidity
    00:00 -2°C° 0 mm 1 mps 763 mmHg 96%
    01:00 -2°C° 0 mm 1 mps 763 mmHg 96%
    02:00 -2°C° 0 mm 1 mps 763 mmHg 95%
    03:00 -2°C° 0 mm 1 mps 763 mmHg 95%
    04:00 -2°C° 0 mm 1 mps 762 mmHg 95%
    05:00 -2°C° 0 mm 1 mps 762 mmHg 95%
    06:00 -2°C° 0 mm 1 mps 762 mmHg 95%
    07:00 -2°C° 0 mm 1 mps 762 mmHg 95%
    08:00 -1°C° 0 mm 1 mps 762 mmHg 95%
    09:00 0°C° 0 mm 1 mps 762 mmHg 94%
    10:00 +1°C° 0 mm 1 mps 762 mmHg 93%
    11:00 +2°C° 0 mm 1 mps 762 mmHg 91%
    12:00 +3°C° 0 mm 1 mps 761 mmHg 92%
    13:00 +3°C° 0 mm 1 mps 760 mmHg 92%
    14:00 +3°C° 0 mm 1 mps 760 mmHg 93%
    15:00 +2°C° 0 mm 1 mps 759 mmHg 94%
    16:00 +2°C° 0 mm 1 mps 759 mmHg 95%
    17:00 +1°C° 0 mm 1 mps 759 mmHg 96%
    18:00 0°C° 0 mm 1 mps 758 mmHg 96%
    19:00 0°C° 0 mm 1 mps 758 mmHg 96%
    20:00 -1°C° 0 mm 1 mps 758 mmHg 96%
    21:00 -1°C° 0 mm 1 mps 758 mmHg 96%
    22:00 -2°C° 0 mm 0 mps 757 mmHg 96%
    23:00 -2°C° 0 mm 0 mps 757 mmHg 96%

    24 January, Tuesday

    Time Temperature Precipitation Wind Pressure Humidity
    00:00 -3°C° 0 mm 0 mps 757 mmHg 96%
    01:00 -3°C° 0 mm 0 mps 756 mmHg 96%
    02:00 -3°C° 0 mm 1 mps 756 mmHg 97%
    03:00 -4°C° 0 mm 0 mps 755 mmHg 97%
    04:00 -4°C° 0 mm 0 mps 755 mmHg 97%
    05:00 -4°C° 0 mm 0 mps 754 mmHg 97%
    06:00 -4°C° 0 mm 0 mps 754 mmHg 96%
    07:00 -3°C° 0 mm 0 mps 754 mmHg 96%
    08:00 -2°C° 0 mm 1 mps 754 mmHg 96%
    09:00 -1°C° 0 mm 0 mps 754 mmHg 94%
    10:00 0°C° 0 mm 0 mps 754 mmHg 91%
    11:00 +2°C° 0 mm 0 mps 753 mmHg 89%
    12:00 +2°C° 0.1 mm 0 mps 753 mmHg 90%
    13:00 +3°C° 0.1 mm 0 mps 753 mmHg 90%
    14:00 +4°C° 0.1 mm 1 mps 752 mmHg 90%
    15:00 +3°C° 0.2 mm 1 mps 752 mmHg 92%
    16:00 +2°C° 0.2 mm 1 mps 752 mmHg 94%
    17:00 +1°C° 0.2 mm 0 mps 752 mmHg 96%
    18:00 +2°C° 0.1 mm 1 mps 752 mmHg 95%
    19:00 +1°C° 0.1 mm 1 mps 752 mmHg 95%
    20:00 -1°C° 0.1 mm 2 mps 752 mmHg 94%
    21:00 -1°C° 0.3 mm 2 mps 752 mmHg 94%
    22:00 -1°C° 0.3 mm 2 mps 753 mmHg 94%
    23:00 -1°C° 0.3 mm 2 mps 753 mmHg 93%

    25 January, Wednesday

    Time Temperature Precipitation Wind Pressure Humidity
    00:00 -1°C° 0.3 mm 2 mps 753 mmHg 93%
    01:00 -1°C° 0.3 mm 3 mps 753 mmHg 93%
    02:00 -2°C° 0.3 mm 3 mps 753 mmHg 92%
    03:00 -3°C° 0.2 mm 4 mps 753 mmHg 92%
    04:00 -3°C° 0.2 mm 4 mps 754 mmHg 92%
    05:00 -3°C° 0.2 mm 4 mps 754 mmHg 92%
    06:00 -4°C° 0 mm 4 mps 754 mmHg 91%
    07:00 -4°C° 0 mm 4 mps 755 mmHg 90%
    08:00 -4°C° 0 mm 4 mps 755 mmHg 89%
    09:00 -4°C° 0 mm 4 mps 756 mmHg 88%
    10:00 -4°C° 0 mm 5 mps 756 mmHg 87%
    11:00 -4°C° 0 mm 5 mps 757 mmHg 85%
    12:00 -4°C° 0 mm 5 mps 757 mmHg 84%
    13:00 -2°C° 0 mm 5 mps 757 mmHg 83%
    14:00 -2°C° 0 mm 5 mps 756 mmHg 82%
    15:00 -4°C° 0 mm 5 mps 757 mmHg 84%
    16:00 -3°C° 0 mm 4 mps 757 mmHg 86%
    17:00 -4°C° 0 mm 3 mps 757 mmHg 88%
    18:00 -4°C° 0 mm 3 mps 758 mmHg 88%
    19:00 -5°C° 0 mm 3 mps 758 mmHg 89%
    20:00 -5°C° 0 mm 3 mps 759 mmHg 90%
    21:00 -5°C° 0 mm 3 mps 759 mmHg 89%
    22:00 -6°C° 0 mm 3 mps 759 mmHg 89%
    23:00 -6°C° 0 mm 3 mps 759 mmHg 89%

    26 January, Thursday

    Time Temperature Precipitation Wind Pressure Humidity
    00:00 -6°C° 0 mm 3 mps 759 mmHg 88%
    01:00 -7°C° 0 mm 3 mps 759 mmHg 88%
    02:00 -7°C° 0 mm 3 mps 759 mmHg 87%
    03:00 -7°C° 0 mm 3 mps 759 mmHg 87%
    04:00 -7°C° 0 mm 3 mps 760 mmHg 87%
    05:00 -7°C° 0 mm 3 mps 760 mmHg 87%
    06:00 -8°C° 0 mm 3 mps 760 mmHg 87%
    07:00 -8°C° 0 mm 3 mps 760 mmHg 87%
    08:00 -8°C° 0 mm 3 mps 761 mmHg 87%
    09:00 -7°C° 0 mm 3 mps 761 mmHg 84%
    10:00 -7°C° 0 mm 3 mps 761 mmHg 80%
    11:00 -7°C° 0 mm 4 mps 762 mmHg 77%
    12:00 -7°C° 0 mm 4 mps 761 mmHg 76%
    13:00 -7°C° 0 mm 4 mps 761 mmHg 74%
    14:00 -7°C° 0 mm 4 mps 761 mmHg 73%
    15:00 -7°C° 0 mm 4 mps 761 mmHg 76%
    16:00 -8°C° 0 mm 4 mps 762 mmHg 79%
    17:00 -9°C° 0 mm 4 mps 762 mmHg 81%
    18:00 -9°C° 0 mm 4 mps 762 mmHg 82%
    19:00 -10°C° 0 mm 4 mps 763 mmHg 83%
    20:00 -10°C° 0 mm 4 mps 763 mmHg 84%
    21:00 -10°C° 0 mm 4 mps 763 mmHg 85%
    22:00 -11°C° 0 mm 4 mps 764 mmHg 85%
    23:00 -11°C° 0 mm 4 mps 764 mmHg 85%
    Show more